Location: Godiavel Galaoual
(15.2485°N, 12.6604°W)
Time: 14:47:52
(UTC+00:00)

Envisat - Pass Details

Date: 04 December 2021
Orbit: 764 x 766 km, 98.2° (Epoch: 27 January)

Event Time Altitude Azimuth Distance (km) Brightness Sun altitude
Rises 05:39:55 0° 9° (N) 3,223 6.1 -19.5°
Reaches altitude 10° 05:42:13 10° 8° (N) 2,296 5.4 -19.0°
Maximum altitude 05:47:17 77° 283° (WNW) 785 2.9 -17.8°
Drops below altitude 10° 05:52:19 10° 197° (SSW) 2,292 5.5 -16.7°
Sets 05:54:37 0° 196° (SSW) 3,217 6.3 -16.2°
